Location: San Martino di Castrozza
(46.2667°N, 11.8000°E)
Time: 07:21:35
(UTC+00:00)

IRS-1D - Pass Details

Date: 23 April 2021
Orbit: 740 x 816 km, 98.6° (Epoch: 08 May)

Event Time Altitude Azimuth Distance (km) Brightness Sun altitude
Rises 02:25:06 0° 7° (N) 3,270 7.5 -16.9°
Reaches altitude 10° 02:27:31 10° 1° (N) 2,350 6.6 -16.5°
Maximum altitude 02:32:20 40° 293° (WNW) 1,155 4.2 -15.9°
Enters shadow 02:34:54 24° 240° (WSW) 1,598 4.5 -15.5°
